Skip Page Navigation
NASA JPL Caltech
NASA Logo - Jet Propulsion Laboratory + View the NASA Portal
+ Center for Near-Earth Object Studies
JPL Home Earth Solar System Stars & Galaxies Technology
JPL Solar System Dynamics
BODIES ORBITS EPHEMERIDES TOOLS PHYSICAL DATA DISCOVERY FAQ SITE MAP
IMPORTANT: The SSD Announcement email list is now available. Major changes are coming in the near future, including possible hostname and/or URL changes. To be notified of such changes, subscribe to this email list.

Please visit this page for more details.


JPL Small-Body Database Browser
Search: [ help ]  
441065 (2007 RV11)
Classification: Main-belt Asteroid          SPK-ID: 2441065
Ephemeris | Orbit Diagram | Orbital Elements | Mission Design | Physical Parameters | Discovery Circumstances ]

[ show orbit diagram ]
Orbital Elements at Epoch 2458600.5 (2019-Apr-27.0) TDB
Reference: JPL 12 (heliocentric ecliptic J2000)
 Element Value Uncertainty (1-sigma)   Units 
e .29900029726404 3.2024e-07  
a 2.545427212697338 2.6164e-08 au
q 1.784343719436857 8.3081e-07 au
i 6.640109630146189 1.0453e-05 deg
node 4.932504965382946 5.3523e-05 deg
peri 347.2547893822486 0.00016893 deg
M 313.8886345590984 8.035e-05 deg
tp 2458790.496207841237
(2019-Nov-02.99620784)
0.00033048 TDB
period 1483.335706258971
4.06
2.2871e-05
6.262e-08
d
yr
n .242696240966203 3.742e-09 deg/d
Q 3.306510705957818 3.3987e-08 au
  Orbit Determination Parameters
   # obs. used (total)      133  
   data-arc span      5885 days (16.11 yr)  
   first obs. used      2003-09-16  
   last obs. used      2019-10-27  
   planetary ephem.      DE431  
   SB-pert. ephem.      SB431-N16  
   condition code      0  
   norm. resid. RMS      .5621  
   source      ORB  
   producer      Otto Matic  
   solution date      2019-Nov-08 15:55:47  

Additional Information
 Earth MOID = .779024 au 
 Jupiter MOID = 2.13104 au 
 T_jup = 3.370 
[ show covariance matrix ]

Ephemeris | Orbit Diagram | Orbital Elements | Mission Design | Physical Parameters | Discovery Circumstances ]

Physical Parameter Table
Parameter Symbol Value Units Sigma Reference Notes
absolute magnitude H 18.5   n/a MPO353521  

441065 (2007 RV11)          Discovered 2007-Sep-10 by Chante-Perdrix at Dauban
Reference: Last Updated: 2015-09-02

Alternate Designations
 2007 RV11 = 2003 SK413 
Ephemeris | Orbit Diagram | Orbital Elements | Mission Design | Physical Parameters | Discovery Circumstances ]
ABOUT SSD CREDITS/AWARDS PRIVACY/COPYRIGHT GLOSSARY LINKS
FirstGov
(server date/time)  
NASA Home Page
Site Manager:   Ryan S. Park
Webmaster  Alan B. Chamberlin